This demonstration page uses our WeatherBlox Daily Observations layout. Learn more.

38.89511, -77.03637

Hourly Observations for January 30, 2015

Temp ( °F °C ) Dew Point ( °F °C ) Humidity (%) Winds ( mph kmh ) Pressure ( in mb ) Visibility ( mi km ) Precip ( " mm )
12:52 am 00:52 Cloudy 41 5 21 -6 45 45 Calm 29.94 1014 10 16.09344 0 0
1:52 am 01:52 Cloudy 37 3 27 -3 65 65 NNW 6 9 29.94 1014 10 16.09344 0 0
2:52 am 02:52 Cloudy 39 4 25 -4 56 56 Calm 29.94 1014 10 16.09344 0 0
3:52 am 03:52 Cloudy 41 5 25 -4 53 53 undefined N/A 29.94 1014 10 16.09344 0 0
4:52 am 04:52 Cloudy 43 6 28 -2 57 57 NW 10 17 29.94 1014 10 16.09344 0 0
5:52 am 05:52 Partly Cloudy 43 6 27 -3 53 53 WNW 10 17 29.94 1014 10 16.09344 0 0
6:52 am 06:52 Partly Cloudy 39 4 23 -5 52 52 NW 15 24 30 1016 10 16.09344 0 0
7:52 am 07:52 Mostly Cloudy 39 4 21 -6 48 48 NW 13 20 30 1016 10 16.09344 0 0
8:52 am 08:52 Mostly Cloudy 41 5 23 -5 49 49 NW 9 15 30.03 1017 10 16.09344 0 0
9:52 am 09:52 Mostly Cloudy 43 6 25 -4 49 49 NW 15 24 30.03 1017 7 11.265408 0 0
9:57 am 09:57 Mostly Cloudy with Scattered Snow Showers 41 5 25 -4 53 53 NNW 17 28 30.03 1017 4 6.437376 0.001 0.001
10:23 am 10:23 Windy with Snow Likely 39 4 27 -3 61 61 WNW 21 33 30.06 1018 2.5 4.02336 0.001 0.001
10:34 am 10:34 Mostly Cloudy with Scattered Snow Showers 37 3 28 -2 70 70 NNW 18 30 30.06 1018 4 6.437376 0 0
10:41 am 10:41 Mostly Cloudy 39 4 28 -2 65 65 NW 14 22 30.06 1018 10 16.09344 0.001 0.001
10:52 am 10:52 Mostly Cloudy 39 4 28 -2 65 65 NW 15 24 30.06 1018 10 16.09344 0.001 0.001
11:26 am 11:26 Mostly Cloudy with Scattered Snow Showers 41 5 25 -4 53 53 NW 22 35 30.06 1018 2.5 4.02336 0 0
11:30 am 11:30 Mostly Cloudy with Scattered Snow Showers 39 4 25 -4 56 56 NW 29 46 30.06 1018 4 6.437376 0 0
11:38 am 11:38 Mostly Cloudy 37 3 25 -4 60 60 NW 18 30 30.06 1018 10 16.09344 0 0
11:52 am 11:52 Mostly Cloudy 39 4 21 -6 48 48 NW 16 26 30.06 1018 10 16.09344 0.001 0.001
12:52 pm 12:52 Partly Cloudy 43 6 12 -11 29 29 WNW 15 24 30.03 1017 10 16.09344 0 0
1:52 pm 13:52 Mostly Cloudy 43 6 14 -10 31 31 NNW 26 43 30.06 1018 10 16.09344 0 0
2:52 pm 14:52 Mostly Cloudy 39 4 12 -11 33 33 NW 22 35 30.06 1018 10 16.09344 0 0
3:52 pm 15:52 Partly Cloudy 37 3 14 -10 38 38 NNW 24 39 30.12 1020 10 16.09344 0 0
4:52 pm 16:52 Mostly Sunny 36 2 12 -11 38 38 NW 21 33 30.15 1021 10 16.09344 0 0
5:52 pm 17:52 Mostly Clear 34 1 10 -12 38 38 NNW 24 39 30.18 1022 10 16.09344 0 0
6:52 pm 18:52 Mostly Clear 30 -1 9 -13 40 40 NW 25 41 30.21 1023 10 16.09344 0 0
7:52 pm 19:52 Clear 28 -2 7 -14 40 40 NW 22 35 30.24 1024 10 16.09344 0 0
8:52 pm 20:52 Mostly Clear 27 -3 7 -14 43 43 NW 20 31 30.27 1025 10 16.09344 0 0
9:52 pm 21:52 Clear 25 -4 3 -16 39 39 NW 17 28 30.27 1025 10 16.09344 0 0
10:52 pm 22:52 Clear 25 -4 3 -16 39 39 NW 15 24 30.27 1025 10 16.09344 0 0
11:52 pm 23:52 Clear 23 -5 3 -16 42 42 NW 15 24 30.27 1025 10 16.09344 0 0

Powered by AerisWeather